DMSP 5D-2 F13 DEB, 40673

Orbit data source: Space-Track

DMSP 5D-2 F13 DEB, 40673 is space debris in SSO originally from a launch on Fri, 24 Mar 1995 UTC launched from the Air Force Western Test Range (AFWTR). Debris objects in space refer to the collection of defunct objects orbiting the Earth. Examples of debris include non-operational satellites, rocket bodies, and fragments generated from explosions, collisions, or faulty payload assembly.

Loading next visibility...
Identifier
40673, 1995-015FM
Orbit
SSO
Country
Flag of USUS
Related business
Manufacturer
Unknown
Mission
Spacecraft
Bus & Motor
Unknown
Mass
Unknown
Launch date (UTC)
1995-03-24 (30 years ago)
Launch vehicle
Unknown
Launch site
Air Force Western Test Range (AFWTR)
Object type
Payload
Rocket body
Debris
Shape & HBR
Unknown
Radar Cross Section
Small (<0.1 m²)

Expand to show TLE details & history
Last TLE update: 1 week ago

TLE from 1 week ago
0 DMSP 5D-2 F13 DEB
1 40673U 95015FM  25250.76827800  .00000654  00000-0  31275-3 0  9998
2 40673  98.7113 265.4300 0024415 123.0711 237.2816 14.22322108540588
Epoch: 2025-09-07T18:26Z
TLE epoch observation values (Epoch: 2025-09-07T18:26:19.219Z)
Latitude
0.00001°
Longitude
1.7669°
Altitude
829.956 km
Speed
7.433 km/s
True Right ascension
17h 41m 43s
True Declination
0° 00' 00"
Sunlit
Object was in daylight at epoch
Visualization orbit readout
Latitude
Unknown
Longitude
Unknown
Altitude
Unknown
Speed
Unknown
Apparent Right ascension
Unknown
Apparent Declination
Unknown
Sunlit
N/A
Visualization observer readout
Local Sidereal Time
18:24:20
Azimuth
Unknown
Elevation
Unknown
Doppler factor
Unknown
Orbital elements
Apogee altitude
832.227 km
Perigee altitude
797.105 km
Semi-major axis
7,192.803 km
Eccentricity
0.00244
Inclination
98.7113°
RAAN
265.43°
Arg. of periapsis
123.0711°
True anomaly
237.0466°
Mean anomaly
237.2816°
Eccentric anomaly
237.16406°
Mean motion
3.55792 °/min
Orbital period
101.18 mins
BSTAR
0.00031275
Loading maneuver chart data...
Computing Atmospheric mass density...

Documentation

Showing up to 5 results
|